Year,Month,Day,Hour,Minute,Value (Times are PST for temperature in C)
2007,03,14,00,00,4.70
2007,03,14,00,01,4.70
2007,03,14,00,02,4.60
2007,03,14,00,03,4.60
2007,03,14,00,04,4.60
2007,03,14,00,05,4.60
2007,03,14,00,06,4.60
2007,03,14,00,07,4.60
2007,03,14,00,08,4.60
2007,03,14,00,09,4.60
2007,03,14,00,10,4.60
2007,03,14,00,11,4.60
2007,03,14,00,12,4.60
2007,03,14,00,13,4.50
2007,03,14,00,14,4.50
2007,03,14,00,15,4.50
2007,03,14,00,16,4.50
2007,03,14,00,17,4.50
2007,03,14,00,18,4.50
2007,03,14,00,19,4.50
2007,03,14,00,20,4.50
2007,03,14,00,21,4.50
2007,03,14,00,22,4.50
2007,03,14,00,23,4.50
2007,03,14,00,24,4.50
2007,03,14,00,25,4.50
2007,03,14,00,26,4.50
2007,03,14,00,27,4.50
2007,03,14,00,28,4.50
2007,03,14,00,29,4.50
2007,03,14,00,30,4.50
2007,03,14,00,31,4.50
2007,03,14,00,32,4.50
2007,03,14,00,33,4.50
2007,03,14,00,34,4.50
2007,03,14,00,35,4.50
2007,03,14,00,36,4.50
2007,03,14,00,37,4.60
2007,03,14,00,38,4.60
2007,03,14,00,39,4.60
2007,03,14,00,40,4.60
2007,03,14,00,41,4.60
2007,03,14,00,42,4.60
2007,03,14,00,43,4.60
2007,03,14,00,44,4.60
2007,03,14,00,45,4.60
2007,03,14,00,46,4.60
2007,03,14,00,47,4.60
2007,03,14,00,48,4.60
2007,03,14,00,49,4.60
2007,03,14,00,50,4.60
2007,03,14,00,51,4.60
2007,03,14,00,52,4.60
2007,03,14,00,53,4.60
2007,03,14,00,54,4.60
2007,03,14,00,55,4.70
2007,03,14,00,56,4.70
2007,03,14,00,57,4.70
2007,03,14,00,58,4.70
2007,03,14,00,59,4.70
2007,03,14,01,00,4.70
2007,03,14,01,01,4.70
2007,03,14,01,02,4.70
2007,03,14,01,03,4.70
2007,03,14,01,04,4.70
2007,03,14,01,05,4.70
2007,03,14,01,06,4.70
2007,03,14,01,07,4.70
2007,03,14,01,08,4.70
2007,03,14,01,09,4.60
2007,03,14,01,10,4.60
2007,03,14,01,11,4.60
2007,03,14,01,12,4.50
2007,03,14,01,13,4.50
2007,03,14,01,14,4.40
2007,03,14,01,15,4.40
2007,03,14,01,16,4.30
2007,03,14,01,17,4.20
2007,03,14,01,18,4.20
2007,03,14,01,19,4.10
2007,03,14,01,20,4.10
2007,03,14,01,21,4.00
2007,03,14,01,22,3.90
2007,03,14,01,23,3.80
2007,03,14,01,24,3.70
2007,03,14,01,25,3.70
2007,03,14,01,26,3.60
2007,03,14,01,27,3.50
2007,03,14,01,28,3.40
2007,03,14,01,29,3.30
2007,03,14,01,30,3.30
2007,03,14,01,31,3.20
2007,03,14,01,32,3.10
2007,03,14,01,33,3.10
2007,03,14,01,34,3.00
2007,03,14,01,35,2.90
2007,03,14,01,36,2.90
2007,03,14,01,37,2.90
2007,03,14,01,38,2.80
2007,03,14,01,39,2.80
2007,03,14,01,40,2.80
2007,03,14,01,41,2.80
2007,03,14,01,42,2.80
2007,03,14,01,43,2.70
2007,03,14,01,44,2.70
2007,03,14,01,45,2.70
2007,03,14,01,46,2.70
2007,03,14,01,47,2.70
2007,03,14,01,48,2.80
2007,03,14,01,49,2.80
2007,03,14,01,50,2.90
2007,03,14,01,51,2.90
2007,03,14,01,52,3.00
2007,03,14,01,53,3.00
2007,03,14,01,54,3.10
2007,03,14,01,55,3.10
2007,03,14,01,56,3.10
2007,03,14,01,57,3.10
2007,03,14,01,58,3.10
2007,03,14,01,59,3.10
2007,03,14,02,00,3.10
2007,03,14,02,01,3.10
2007,03,14,02,02,3.20
2007,03,14,02,03,3.20
2007,03,14,02,04,3.20
2007,03,14,02,05,3.20
2007,03,14,02,06,3.20
2007,03,14,02,07,3.20
2007,03,14,02,08,3.20
2007,03,14,02,09,3.20
2007,03,14,02,10,3.20
2007,03,14,02,11,3.20
2007,03,14,02,12,3.20
2007,03,14,02,13,3.20
2007,03,14,02,14,3.20
2007,03,14,02,15,3.10
2007,03,14,02,16,3.10
2007,03,14,02,17,3.10
2007,03,14,02,18,3.00
2007,03,14,02,19,3.00
2007,03,14,02,20,3.00
2007,03,14,02,21,2.90
2007,03,14,02,22,2.90
2007,03,14,02,23,2.90
2007,03,14,02,24,2.90
2007,03,14,02,25,2.80
2007,03,14,02,26,2.80
2007,03,14,02,27,2.80
2007,03,14,02,28,2.90
2007,03,14,02,29,2.90
2007,03,14,02,30,2.90
2007,03,14,02,31,3.00
2007,03,14,02,32,3.10
2007,03,14,02,33,3.10
2007,03,14,02,34,3.10
2007,03,14,02,35,3.20
2007,03,14,02,36,3.20
2007,03,14,02,37,3.30
2007,03,14,02,38,3.30
2007,03,14,02,39,3.30
2007,03,14,02,40,3.30
2007,03,14,02,41,3.30
2007,03,14,02,42,3.40
2007,03,14,02,43,3.40
2007,03,14,02,44,3.40
2007,03,14,02,45,3.40
2007,03,14,02,46,3.30
2007,03,14,02,47,3.30
2007,03,14,02,48,3.30
2007,03,14,02,49,3.30
2007,03,14,02,50,3.30
2007,03,14,02,51,3.30
2007,03,14,02,52,3.20
2007,03,14,02,53,3.20
2007,03,14,02,54,3.20
2007,03,14,02,55,3.20
2007,03,14,02,56,3.20
2007,03,14,02,57,3.10
2007,03,14,02,58,3.10
2007,03,14,02,59,3.10
2007,03,14,03,00,3.10
2007,03,14,03,01,3.10
2007,03,14,03,02,3.10
2007,03,14,03,03,3.10
2007,03,14,03,04,3.20
2007,03,14,03,05,3.20
2007,03,14,03,06,3.20
2007,03,14,03,07,3.30
2007,03,14,03,08,3.30
2007,03,14,03,09,3.30
2007,03,14,03,10,3.30
2007,03,14,03,11,3.30
2007,03,14,03,12,3.30
2007,03,14,03,13,3.20
2007,03,14,03,14,3.20
2007,03,14,03,15,3.10
2007,03,14,03,16,3.00
2007,03,14,03,17,3.00
2007,03,14,03,18,2.90
2007,03,14,03,19,2.90
2007,03,14,03,20,2.80
2007,03,14,03,21,2.80
2007,03,14,03,22,2.80
2007,03,14,03,23,2.80
2007,03,14,03,24,2.80
2007,03,14,03,25,2.80
2007,03,14,03,26,2.70
2007,03,14,03,27,2.70
2007,03,14,03,28,2.70
2007,03,14,03,29,2.70
2007,03,14,03,30,2.70
2007,03,14,03,31,2.70
2007,03,14,03,32,2.70
2007,03,14,03,33,2.60
2007,03,14,03,34,2.60
2007,03,14,03,35,2.60
2007,03,14,03,36,2.60
2007,03,14,03,37,2.60
2007,03,14,03,38,2.60
2007,03,14,03,39,2.60
2007,03,14,03,40,2.70
2007,03,14,03,41,2.80
2007,03,14,03,42,2.80
2007,03,14,03,43,2.90
2007,03,14,03,44,2.90
2007,03,14,03,45,2.90
2007,03,14,03,46,3.00
2007,03,14,03,47,3.00
2007,03,14,03,48,3.00
2007,03,14,03,49,3.10
2007,03,14,03,50,3.10
2007,03,14,03,51,3.10
2007,03,14,03,52,3.20
2007,03,14,03,53,3.20
2007,03,14,03,54,3.20
2007,03,14,03,55,3.20
2007,03,14,03,56,3.20
2007,03,14,03,57,3.20
2007,03,14,03,58,3.20
2007,03,14,03,59,3.20
2007,03,14,04,00,3.20
2007,03,14,04,01,3.20
2007,03,14,04,02,3.20
2007,03,14,04,03,3.20
2007,03,14,04,04,3.20
2007,03,14,04,05,3.20
2007,03,14,04,06,3.20
2007,03,14,04,07,3.20
2007,03,14,04,08,3.20
2007,03,14,04,09,3.20
2007,03,14,04,10,3.20
2007,03,14,04,11,3.10
2007,03,14,04,12,3.10
2007,03,14,04,13,3.10
2007,03,14,04,14,3.10
2007,03,14,04,15,3.10
2007,03,14,04,16,3.10
2007,03,14,04,17,3.10
2007,03,14,04,18,3.10
2007,03,14,04,19,3.10
2007,03,14,04,20,3.10
2007,03,14,04,21,3.10
2007,03,14,04,22,3.00
2007,03,14,04,23,3.00
2007,03,14,04,24,3.00
2007,03,14,04,25,3.00
2007,03,14,04,26,3.00
2007,03,14,04,27,3.10
2007,03,14,04,28,3.20
2007,03,14,04,29,3.20
2007,03,14,04,30,3.20
2007,03,14,04,31,3.30
2007,03,14,04,32,3.30
2007,03,14,04,33,3.30
2007,03,14,04,34,3.30
2007,03,14,04,35,3.30
2007,03,14,04,36,3.30
2007,03,14,04,37,3.30
2007,03,14,04,38,3.30
2007,03,14,04,39,3.30
2007,03,14,04,40,3.30
2007,03,14,04,41,3.30
2007,03,14,04,42,3.30
2007,03,14,04,43,3.30
2007,03,14,04,44,3.20
2007,03,14,04,45,3.20
2007,03,14,04,46,3.10
2007,03,14,04,47,3.10
2007,03,14,04,48,3.10
2007,03,14,04,49,3.10
2007,03,14,04,50,3.00
2007,03,14,04,51,3.00
2007,03,14,04,52,2.90
2007,03,14,04,53,2.90
2007,03,14,04,54,2.80
2007,03,14,04,55,2.70
2007,03,14,04,56,2.70
2007,03,14,04,57,2.60
2007,03,14,04,58,2.60
2007,03,14,04,59,2.60
2007,03,14,05,00,2.60
2007,03,14,05,01,2.60
2007,03,14,05,02,2.70
2007,03,14,05,03,2.70
2007,03,14,05,04,2.70
2007,03,14,05,05,2.80
2007,03,14,05,06,2.80
2007,03,14,05,07,2.80
2007,03,14,05,08,2.80
2007,03,14,05,09,2.80
2007,03,14,05,10,2.70
2007,03,14,05,11,2.70
2007,03,14,05,12,2.70
2007,03,14,05,13,2.70
2007,03,14,05,14,2.70
2007,03,14,05,15,2.60
2007,03,14,05,16,2.60
2007,03,14,05,17,2.50
2007,03,14,05,18,2.50
2007,03,14,05,19,2.40
2007,03,14,05,20,2.40
2007,03,14,05,21,2.30
2007,03,14,05,22,2.30
2007,03,14,05,23,2.20
2007,03,14,05,24,2.20
2007,03,14,05,25,2.20
2007,03,14,05,26,2.10
2007,03,14,05,27,2.10
2007,03,14,05,28,2.10
2007,03,14,05,29,2.10
2007,03,14,05,30,2.00
2007,03,14,05,31,2.00
2007,03,14,05,32,1.90
2007,03,14,05,33,1.90
2007,03,14,05,34,1.80
2007,03,14,05,35,1.80
2007,03,14,05,36,1.70
2007,03,14,05,37,1.70
2007,03,14,05,38,1.70
2007,03,14,05,39,1.60
2007,03,14,05,40,1.60
2007,03,14,05,41,1.50
2007,03,14,05,42,1.50
2007,03,14,05,43,1.40
2007,03,14,05,44,1.40
2007,03,14,05,45,1.30
2007,03,14,05,46,1.30
2007,03,14,05,47,1.30
2007,03,14,05,48,1.30
2007,03,14,05,49,1.30
2007,03,14,05,50,1.30
2007,03,14,05,51,1.40
2007,03,14,05,52,1.40
2007,03,14,05,53,1.40
2007,03,14,05,54,1.50
2007,03,14,05,55,1.50
2007,03,14,05,56,1.60
2007,03,14,05,57,1.60
2007,03,14,05,58,1.60
2007,03,14,05,59,1.60
2007,03,14,06,00,1.60
2007,03,14,06,01,1.60
2007,03,14,06,02,1.60
2007,03,14,06,03,1.60
2007,03,14,06,04,1.60
2007,03,14,06,05,1.60
2007,03,14,06,06,1.50
2007,03,14,06,07,1.50
2007,03,14,06,08,1.50
2007,03,14,06,09,1.40
2007,03,14,06,10,1.30
2007,03,14,06,11,1.30
2007,03,14,06,12,1.30
2007,03,14,06,13,1.30
2007,03,14,06,14,1.20
2007,03,14,06,15,1.20
2007,03,14,06,16,1.10
2007,03,14,06,17,1.10
2007,03,14,06,18,1.00
2007,03,14,06,19,1.00
2007,03,14,06,20,0.90
2007,03,14,06,21,0.90
2007,03,14,06,22,0.90
2007,03,14,06,23,0.90
2007,03,14,06,24,0.90
2007,03,14,06,25,0.90
2007,03,14,06,26,0.80
2007,03,14,06,27,0.80
2007,03,14,06,28,0.80
2007,03,14,06,29,0.80
2007,03,14,06,30,0.80
2007,03,14,06,31,0.80
2007,03,14,06,32,0.80
2007,03,14,06,33,0.80
2007,03,14,06,34,0.80
2007,03,14,06,35,0.70
2007,03,14,06,36,0.70
2007,03,14,06,37,0.70
2007,03,14,06,38,0.70
2007,03,14,06,39,0.70
2007,03,14,06,40,0.60
2007,03,14,06,41,0.60
2007,03,14,06,42,0.60
2007,03,14,06,43,0.60
2007,03,14,06,44,0.60
2007,03,14,06,45,0.60
2007,03,14,06,46,0.60
2007,03,14,06,47,0.60
2007,03,14,06,48,0.60
2007,03,14,06,49,0.50
2007,03,14,06,50,0.50
2007,03,14,06,51,0.50
2007,03,14,06,52,0.50
2007,03,14,06,53,0.50
2007,03,14,06,54,0.50
2007,03,14,06,55,0.50
2007,03,14,06,56,0.50
2007,03,14,06,57,0.50
2007,03,14,06,58,0.60
2007,03,14,06,59,0.60
2007,03,14,07,00,0.60
2007,03,14,07,01,0.60
2007,03,14,07,02,0.60
2007,03,14,07,03,0.60
2007,03,14,07,04,0.60
2007,03,14,07,05,0.60
2007,03,14,07,06,0.60
2007,03,14,07,07,0.60
2007,03,14,07,08,0.60
2007,03,14,07,09,0.60
2007,03,14,07,10,0.70
2007,03,14,07,11,0.80
2007,03,14,07,12,0.80
2007,03,14,07,13,0.90
2007,03,14,07,14,1.00
2007,03,14,07,15,1.10
2007,03,14,07,16,1.10
2007,03,14,07,17,1.20
2007,03,14,07,18,1.20
2007,03,14,07,19,1.20
2007,03,14,07,20,1.20
2007,03,14,07,21,1.10
2007,03,14,07,22,1.10
2007,03,14,07,23,1.10
2007,03,14,07,24,1.10
2007,03,14,07,25,1.00
2007,03,14,07,26,1.00
2007,03,14,07,27,1.00
2007,03,14,07,28,1.00
2007,03,14,07,29,1.00
2007,03,14,07,30,1.00
2007,03,14,07,31,1.00
2007,03,14,07,32,0.90
2007,03,14,07,33,0.90
2007,03,14,07,34,0.90
2007,03,14,07,35,0.90
2007,03,14,07,36,0.90
2007,03,14,07,37,0.90
2007,03,14,07,38,0.90
2007,03,14,07,39,0.90
2007,03,14,07,40,0.90
2007,03,14,07,41,0.90
2007,03,14,07,42,0.90
2007,03,14,07,43,0.90
2007,03,14,07,44,0.90
2007,03,14,07,45,0.90
2007,03,14,07,46,0.90
2007,03,14,07,47,1.00
2007,03,14,07,48,1.00
2007,03,14,07,49,1.00
2007,03,14,07,50,1.00
2007,03,14,07,51,0.90
2007,03,14,07,52,0.90
2007,03,14,07,53,0.90
2007,03,14,07,54,1.00
2007,03,14,07,55,1.00
2007,03,14,07,56,1.00
2007,03,14,07,57,1.10
2007,03,14,07,58,1.10
2007,03,14,07,59,1.10
2007,03,14,08,00,1.10
2007,03,14,08,01,1.10
2007,03,14,08,02,1.10
2007,03,14,08,03,1.20
2007,03,14,08,04,1.20
2007,03,14,08,05,1.30
2007,03,14,08,06,1.30
2007,03,14,08,07,1.30
2007,03,14,08,08,1.30
2007,03,14,08,09,1.30
2007,03,14,08,10,1.30
2007,03,14,08,11,1.30
2007,03,14,08,12,1.30
2007,03,14,08,13,1.30
2007,03,14,08,14,1.30
2007,03,14,08,15,1.40
2007,03,14,08,16,1.40
2007,03,14,08,17,1.50
2007,03,14,08,18,1.60
2007,03,14,08,19,1.60
2007,03,14,08,20,1.70
2007,03,14,08,21,1.80
2007,03,14,08,22,1.80
2007,03,14,08,23,1.90
2007,03,14,08,24,2.00
2007,03,14,08,25,2.10
2007,03,14,08,26,2.10
2007,03,14,08,27,2.20
2007,03,14,08,28,2.20
2007,03,14,08,29,2.30
2007,03,14,08,30,2.30
2007,03,14,08,31,2.30
2007,03,14,08,32,2.40
2007,03,14,08,33,2.40
2007,03,14,08,34,2.40
2007,03,14,08,35,2.50
2007,03,14,08,36,2.50
2007,03,14,08,37,2.50
2007,03,14,08,38,2.50
2007,03,14,08,39,2.50
2007,03,14,08,40,2.60
2007,03,14,08,41,2.60
2007,03,14,08,42,2.60
2007,03,14,08,43,2.60
2007,03,14,08,44,2.60
2007,03,14,08,45,2.60
2007,03,14,08,46,2.70
2007,03,14,08,47,2.70
2007,03,14,08,48,2.70
2007,03,14,08,49,2.70
2007,03,14,08,50,2.80
2007,03,14,08,51,2.80
2007,03,14,08,52,2.80
2007,03,14,08,53,2.90
2007,03,14,08,54,2.90
2007,03,14,08,55,2.90
2007,03,14,08,56,2.90
2007,03,14,08,57,3.00
2007,03,14,08,58,3.00
2007,03,14,08,59,3.00
2007,03,14,09,00,3.00
2007,03,14,09,01,3.00
2007,03,14,09,02,3.00
2007,03,14,09,03,3.10
2007,03,14,09,04,3.10
2007,03,14,09,05,3.10
2007,03,14,09,06,3.10
2007,03,14,09,07,3.10
2007,03,14,09,08,3.20
2007,03,14,09,09,3.20
2007,03,14,09,10,3.20
2007,03,14,09,11,3.30
2007,03,14,09,12,3.30
2007,03,14,09,13,3.30
2007,03,14,09,14,3.30
2007,03,14,09,15,3.30
2007,03,14,09,16,3.30
2007,03,14,09,17,3.40
2007,03,14,09,18,3.40
2007,03,14,09,19,3.50
2007,03,14,09,20,3.50
2007,03,14,09,21,3.50
2007,03,14,09,22,3.60
2007,03,14,09,23,3.70
2007,03,14,09,24,3.70
2007,03,14,09,25,3.80
2007,03,14,09,26,3.80
2007,03,14,09,27,3.80
2007,03,14,09,28,3.90
2007,03,14,09,29,3.90
2007,03,14,09,30,4.00
2007,03,14,09,31,4.00
2007,03,14,09,32,4.10
2007,03,14,09,33,4.10
2007,03,14,09,34,4.20
2007,03,14,09,35,4.30
2007,03,14,09,36,4.30
2007,03,14,09,37,4.40
2007,03,14,09,38,4.40
2007,03,14,09,39,4.40
2007,03,14,09,40,4.40
2007,03,14,09,41,4.40
2007,03,14,09,42,4.40
2007,03,14,09,43,4.40
2007,03,14,09,44,4.40
2007,03,14,09,45,4.40
2007,03,14,09,46,4.40
2007,03,14,09,47,4.40
2007,03,14,09,48,4.40
2007,03,14,09,49,4.40
2007,03,14,09,50,4.40
2007,03,14,09,51,4.40
2007,03,14,09,52,4.40
2007,03,14,09,53,4.40
2007,03,14,09,54,4.40
2007,03,14,09,55,4.40
2007,03,14,09,56,4.50
2007,03,14,09,57,4.50
2007,03,14,09,58,4.60
2007,03,14,09,59,4.60
2007,03,14,10,00,4.60
2007,03,14,10,01,4.60
2007,03,14,10,02,4.60
2007,03,14,10,03,4.60
2007,03,14,10,04,4.60
2007,03,14,10,05,4.60
2007,03,14,10,06,4.60
2007,03,14,10,07,4.60
2007,03,14,10,08,4.60
2007,03,14,10,09,4.60
2007,03,14,10,10,4.60
2007,03,14,10,11,4.60
2007,03,14,10,12,4.60
2007,03,14,10,13,4.70
2007,03,14,10,14,4.70
2007,03,14,10,15,4.70
2007,03,14,10,16,4.70
2007,03,14,10,17,4.80
2007,03,14,10,18,4.80
2007,03,14,10,19,4.80
2007,03,14,10,20,4.90
2007,03,14,10,21,5.00
2007,03,14,10,22,5.00
2007,03,14,10,23,5.00
2007,03,14,10,24,5.10
2007,03,14,10,25,5.20
2007,03,14,10,26,5.10
2007,03,14,10,27,5.10
2007,03,14,10,28,5.20
2007,03,14,10,29,5.20
2007,03,14,10,30,5.20
2007,03,14,10,31,5.20
2007,03,14,10,32,5.30
2007,03,14,10,33,5.30
2007,03,14,10,34,5.30
2007,03,14,10,35,5.30
2007,03,14,10,36,5.30
2007,03,14,10,37,5.30
2007,03,14,10,38,5.30
2007,03,14,10,39,5.30
2007,03,14,10,40,5.40
2007,03,14,10,41,5.40
2007,03,14,10,42,5.40
2007,03,14,10,43,5.50
2007,03,14,10,44,5.60
2007,03,14,10,45,5.60
2007,03,14,10,46,5.70
2007,03,14,10,47,5.70
2007,03,14,10,48,5.70
2007,03,14,10,49,5.70
2007,03,14,10,50,5.70
2007,03,14,10,51,5.70
2007,03,14,10,52,5.80
2007,03,14,10,53,5.80
2007,03,14,10,54,5.80
2007,03,14,10,55,5.80
2007,03,14,10,56,5.80
2007,03,14,10,57,5.90
2007,03,14,10,58,6.00
2007,03,14,10,59,6.10
2007,03,14,11,00,6.10
2007,03,14,11,01,6.10
2007,03,14,11,02,6.10
2007,03,14,11,03,6.10
2007,03,14,11,04,6.00
2007,03,14,11,05,6.00
2007,03,14,11,06,5.90
2007,03,14,11,07,5.90
2007,03,14,11,08,5.90
2007,03,14,11,09,5.90
2007,03,14,11,10,5.90
2007,03,14,11,11,5.90
2007,03,14,11,12,5.90
2007,03,14,11,13,5.90
2007,03,14,11,14,5.90
2007,03,14,11,15,5.90
2007,03,14,11,16,5.90
2007,03,14,20,20,5.30
2007,03,14,20,21,5.30
2007,03,14,20,22,5.30
2007,03,14,20,23,5.30
2007,03,14,20,24,5.30
2007,03,14,20,25,5.30
2007,03,14,20,26,5.30
2007,03,14,20,27,5.30
2007,03,14,20,28,5.30
2007,03,14,20,29,5.30
2007,03,14,20,30,5.20
2007,03,14,20,31,5.20
2007,03,14,20,32,5.20
2007,03,14,20,33,5.20
2007,03,14,20,34,5.10
2007,03,14,20,35,5.10
2007,03,14,20,36,5.10
2007,03,14,20,37,5.10
2007,03,14,20,38,5.10
2007,03,14,20,39,5.00
2007,03,14,20,40,5.00
2007,03,14,20,41,5.00
2007,03,14,20,42,5.00
2007,03,14,20,43,4.90
2007,03,14,20,44,4.90
2007,03,14,20,45,4.90
2007,03,14,20,46,4.90
2007,03,14,20,47,4.90
2007,03,14,20,48,4.90
2007,03,14,20,49,4.90
2007,03,14,20,50,4.90
2007,03,14,20,51,4.90
2007,03,14,20,52,4.90
2007,03,14,20,53,4.90
2007,03,14,20,54,4.80
2007,03,14,20,55,4.80
2007,03,14,20,56,4.80
2007,03,14,20,57,4.80
2007,03,14,20,58,4.80
2007,03,14,20,59,4.80
2007,03,14,21,00,4.80
2007,03,14,21,01,4.80
2007,03,14,21,02,4.80
2007,03,14,21,03,4.80
2007,03,14,21,04,4.80
2007,03,14,21,05,4.80
2007,03,14,21,06,4.80
2007,03,14,21,07,4.80
2007,03,14,21,08,4.80
2007,03,14,21,09,4.80
2007,03,14,21,10,4.80
2007,03,14,21,11,4.80
2007,03,14,21,12,4.80
2007,03,14,21,13,4.80
2007,03,14,21,14,4.80
2007,03,14,21,15,4.80
2007,03,14,21,16,4.80
2007,03,14,21,17,4.80
2007,03,14,21,18,4.80
2007,03,14,21,19,4.80
2007,03,14,21,20,4.90
2007,03,14,21,21,4.90
2007,03,14,21,22,4.90
2007,03,14,21,23,4.90
2007,03,14,21,24,4.90
2007,03,14,21,25,4.90
2007,03,14,21,26,4.90
2007,03,14,21,27,4.90
2007,03,14,21,28,4.90
2007,03,14,21,29,4.90
2007,03,14,21,30,5.00
2007,03,14,21,31,5.00
2007,03,14,21,32,5.00
2007,03,14,21,33,5.00
2007,03,14,21,34,5.00
2007,03,14,21,35,5.00
2007,03,14,21,36,5.00
2007,03,14,21,37,5.00
2007,03,14,21,38,5.00
2007,03,14,21,39,5.00
2007,03,14,21,40,5.00
2007,03,14,21,41,4.90
2007,03,14,21,42,4.90
2007,03,14,21,43,4.90
2007,03,14,21,44,4.90
2007,03,14,21,45,4.80
2007,03,14,21,46,4.80
2007,03,14,21,47,4.80
2007,03,14,21,48,4.80
2007,03,14,21,49,4.80
2007,03,14,21,50,4.80
2007,03,14,21,51,4.70
2007,03,14,21,52,4.70
2007,03,14,21,53,4.70
2007,03,14,21,54,4.70
2007,03,14,21,55,4.70
2007,03,14,21,56,4.70
2007,03,14,21,57,4.60
2007,03,14,21,58,4.60
2007,03,14,21,59,4.50
2007,03,14,22,00,4.50
2007,03,14,22,01,4.40
2007,03,14,22,02,4.40
2007,03,14,22,03,4.40
2007,03,14,22,04,4.40
2007,03,14,22,05,4.30
2007,03,14,22,06,4.30
2007,03,14,22,07,4.30
2007,03,14,22,08,4.30
2007,03,14,22,09,4.30
2007,03,14,22,10,4.30
2007,03,14,22,11,4.30
2007,03,14,22,12,4.30
2007,03,14,22,13,4.30
2007,03,14,22,14,4.20
2007,03,14,22,15,4.20
2007,03,14,22,16,4.20
2007,03,14,22,17,4.30
2007,03,14,22,18,4.20
2007,03,14,22,19,4.20
2007,03,14,22,20,4.20
2007,03,14,22,21,4.20
2007,03,14,22,22,4.20
2007,03,14,22,23,4.20
2007,03,14,22,24,4.20
2007,03,14,22,25,4.10
2007,03,14,22,26,4.10
2007,03,14,22,27,4.10
2007,03,14,22,28,4.10
2007,03,14,22,29,4.10
2007,03,14,22,30,4.10
2007,03,14,22,31,4.10
2007,03,14,22,32,4.00
2007,03,14,22,33,4.00
2007,03,14,22,34,3.90
2007,03,14,22,35,3.90
2007,03,14,22,36,3.90
2007,03,14,22,37,3.90
2007,03,14,22,38,3.90
2007,03,14,22,39,3.80
2007,03,14,22,40,3.80
2007,03,14,22,41,3.80
2007,03,14,22,42,3.80
2007,03,14,22,43,3.80
2007,03,14,22,44,3.80
2007,03,14,22,45,3.80
2007,03,14,22,46,3.80
2007,03,14,22,47,3.80
2007,03,14,22,48,3.80
2007,03,14,22,49,3.80
2007,03,14,22,50,3.80
2007,03,14,22,51,3.80
2007,03,14,22,52,3.80
2007,03,14,22,53,3.80
2007,03,14,22,54,3.80
2007,03,14,22,55,3.80
2007,03,14,22,56,3.80
2007,03,14,22,57,3.80
2007,03,14,22,58,3.80
2007,03,14,22,59,3.80
2007,03,14,23,00,3.80
2007,03,14,23,01,3.80
2007,03,14,23,02,3.70
2007,03,14,23,03,3.70
2007,03,14,23,04,3.70
2007,03,14,23,05,3.70
2007,03,14,23,06,3.70
2007,03,14,23,07,3.60
2007,03,14,23,08,3.60
2007,03,14,23,09,3.60
2007,03,14,23,10,3.60
2007,03,14,23,11,3.60
2007,03,14,23,12,3.60
2007,03,14,23,13,3.60
2007,03,14,23,14,3.60
2007,03,14,23,15,3.60
2007,03,14,23,16,3.60
2007,03,14,23,17,3.60
2007,03,14,23,18,3.60
2007,03,14,23,19,3.60
2007,03,14,23,20,3.60
2007,03,14,23,21,3.60
2007,03,14,23,22,3.60
2007,03,14,23,23,3.60
2007,03,14,23,24,3.60
2007,03,14,23,25,3.60
2007,03,14,23,26,3.60
2007,03,14,23,27,3.50
2007,03,14,23,28,3.50
2007,03,14,23,29,3.50
2007,03,14,23,30,3.50
2007,03,14,23,31,3.50
2007,03,14,23,32,3.50
2007,03,14,23,33,3.50
2007,03,14,23,34,3.50
2007,03,14,23,35,3.40
2007,03,14,23,36,3.40
2007,03,14,23,37,3.40
2007,03,14,23,38,3.40
2007,03,14,23,39,3.40
2007,03,14,23,40,3.40
2007,03,14,23,41,3.40
2007,03,14,23,42,3.30
2007,03,14,23,43,3.30
2007,03,14,23,44,3.30
2007,03,14,23,45,3.30
2007,03,14,23,46,3.30
2007,03,14,23,47,3.30
2007,03,14,23,48,3.20
2007,03,14,23,49,3.20
2007,03,14,23,50,3.20
2007,03,14,23,51,3.20
2007,03,14,23,52,3.10
2007,03,14,23,53,3.10
2007,03,14,23,54,3.10
2007,03,14,23,55,3.00
2007,03,14,23,56,3.00
2007,03,14,23,57,3.00
2007,03,14,23,58,2.90
2007,03,14,23,59,2.90
